• In Österreich
  • Länderverzeichnis
  • Für 7 Tage
  • Wassertemperatur
  • Satellitenkarten
  • Wetterkarte
  • News
  • Widgets
  • user-avatar
    Anmelden

    Stündliche Wetter Grado

    Heute, 6 Dezember, Dienstag

    Zeit Temperatur Niederschläge Wind Luftdruck Luftfeuchtigkeit
    00:00 +4°C° 0 mm 1 m/S 771 mmHg 91%
    01:00 +4°C° 0 mm 1 m/S 771 mmHg 91%
    02:00 +4°C° 0 mm 1 m/S 771 mmHg 89%
    03:00 +4°C° 0 mm 1 m/S 771 mmHg 87%
    04:00 +4°C° 0 mm 1 m/S 771 mmHg 85%
    05:00 +4°C° 0 mm 1 m/S 771 mmHg 83%
    06:00 +4°C° 0 mm 1 m/S 771 mmHg 82%
    07:00 +4°C° 0 mm 1 m/S 771 mmHg 80%
    08:00 +6°C° 0 mm 1 m/S 771 mmHg 74%
    09:00 +8°C° 0 mm 1 m/S 771 mmHg 69%
    10:00 +10°C° 0 mm 1 m/S 771 mmHg 63%
    11:00 +11°C° 0 mm 1 m/S 771 mmHg 61%
    12:00 +11°C° 0 mm 1 m/S 771 mmHg 59%
    13:00 +12°C° 0 mm 1 m/S 771 mmHg 58%
    14:00 +10°C° 0 mm 1 m/S 771 mmHg 65%
    15:00 +8°C° 0 mm 1 m/S 771 mmHg 72%
    16:00 +7°C° 0 mm 1 m/S 771 mmHg 80%
    17:00 +6°C° 0 mm 1 m/S 772 mmHg 78%
    18:00 +6°C° 0 mm 1 m/S 772 mmHg 76%
    19:00 +4°C° 0 mm 2 m/S 772 mmHg 74%
    20:00 +4°C° 0 mm 2 m/S 773 mmHg 73%
    21:00 +4°C° 0 mm 2 m/S 773 mmHg 72%
    22:00 +4°C° 0 mm 2 m/S 774 mmHg 71%
    23:00 +4°C° 0 mm 2 m/S 774 mmHg 71%

    Morgen, 7 Dezember, Mittwoch

    Zeit Temperatur Niederschläge Wind Luftdruck Luftfeuchtigkeit
    00:00 +4°C° 0 mm 2 m/S 774 mmHg 71%
    01:00 +3°C° 0 mm 3 m/S 774 mmHg 71%
    02:00 +2°C° 0 mm 3 m/S 774 mmHg 71%
    03:00 +2°C° 0 mm 3 m/S 774 mmHg 70%
    04:00 +2°C° 0 mm 3 m/S 774 mmHg 70%
    05:00 +2°C° 0 mm 3 m/S 775 mmHg 70%
    06:00 +2°C° 0 mm 3 m/S 775 mmHg 70%
    07:00 +2°C° 0 mm 3 m/S 775 mmHg 71%
    08:00 +3°C° 0 mm 3 m/S 775 mmHg 67%
    09:00 +4°C° 0 mm 3 m/S 775 mmHg 63%
    10:00 +7°C° 0 mm 2 m/S 776 mmHg 59%
    11:00 +8°C° 0 mm 2 m/S 775 mmHg 57%
    12:00 +9°C° 0 mm 2 m/S 775 mmHg 54%
    13:00 +10°C° 0 mm 2 m/S 775 mmHg 52%
    14:00 +9°C° 0 mm 2 m/S 775 mmHg 58%
    15:00 +7°C° 0 mm 2 m/S 775 mmHg 63%
    16:00 +6°C° 0 mm 2 m/S 775 mmHg 69%
    17:00 +5°C° 0 mm 2 m/S 776 mmHg 70%
    18:00 +4°C° 0 mm 2 m/S 776 mmHg 70%
    19:00 +4°C° 0 mm 2 m/S 776 mmHg 71%
    20:00 +3°C° 0 mm 2 m/S 776 mmHg 70%
    21:00 +3°C° 0 mm 2 m/S 776 mmHg 69%
    22:00 +3°C° 0 mm 2 m/S 776 mmHg 68%
    23:00 +3°C° 0 mm 2 m/S 776 mmHg 67%

    übermorgen, 8 Dezember, Donnerstag

    Zeit Temperatur Niederschläge Wind Luftdruck Luftfeuchtigkeit
    00:00 +3°C° 0 mm 2 m/S 776 mmHg 66%
    01:00 +3°C° 0 mm 2 m/S 776 mmHg 65%
    02:00 +4°C° 0 mm 1 m/S 776 mmHg 64%
    03:00 +4°C° 0 mm 1 m/S 776 mmHg 63%
    04:00 +4°C° 0 mm 1 m/S 776 mmHg 62%
    05:00 +4°C° 0 mm 1 m/S 776 mmHg 62%
    06:00 +4°C° 0 mm 1 m/S 776 mmHg 61%
    07:00 +4°C° 0 mm 1 m/S 775 mmHg 61%
    08:00 +6°C° 0 mm 1 m/S 776 mmHg 57%
    09:00 +8°C° 0 mm 1 m/S 776 mmHg 53%
    10:00 +10°C° 0 mm 1 m/S 776 mmHg 49%
    11:00 +11°C° 0 mm 1 m/S 776 mmHg 49%
    12:00 +11°C° 0 mm 1 m/S 775 mmHg 50%
    13:00 +12°C° 0 mm 1 m/S 775 mmHg 50%
    14:00 +10°C° 0 mm 1 m/S 775 mmHg 58%
    15:00 +8°C° 0 mm 1 m/S 775 mmHg 66%
    16:00 +6°C° 0 mm 1 m/S 775 mmHg 75%
    17:00 +6°C° 0 mm 1 m/S 775 mmHg 74%
    18:00 +5°C° 0 mm 1 m/S 775 mmHg 74%
    19:00 +4°C° 0 mm 1 m/S 775 mmHg 74%
    20:00 +4°C° 0 mm 1 m/S 775 mmHg 73%
    21:00 +4°C° 0 mm 1 m/S 775 mmHg 72%
    22:00 +4°C° 0 mm 1 m/S 775 mmHg 71%
    23:00 +4°C° 0 mm 1 m/S 775 mmHg 69%

    9 Dezember, Freitag

    Zeit Temperatur Niederschläge Wind Luftdruck Luftfeuchtigkeit
    00:00 +4°C° 0 mm 1 m/S 775 mmHg 66%
    01:00 +4°C° 0 mm 1 m/S 775 mmHg 64%
    02:00 +4°C° 0 mm 1 m/S 774 mmHg 63%
    03:00 +4°C° 0 mm 1 m/S 774 mmHg 62%
    04:00 +4°C° 0 mm 1 m/S 774 mmHg 61%
    05:00 +4°C° 0 mm 1 m/S 774 mmHg 61%
    06:00 +4°C° 0 mm 1 m/S 774 mmHg 61%
    07:00 +4°C° 0 mm 1 m/S 774 mmHg 60%
    08:00 +6°C° 0 mm 1 m/S 774 mmHg 56%
    09:00 +8°C° 0 mm 1 m/S 774 mmHg 52%
    10:00 +10°C° 0 mm 1 m/S 774 mmHg 48%
    11:00 +10°C° 0 mm 1 m/S 774 mmHg 49%
    12:00 +11°C° 0 mm 1 m/S 773 mmHg 51%
    13:00 +12°C° 0 mm 1 m/S 773 mmHg 52%
    14:00 +10°C° 0 mm 1 m/S 773 mmHg 61%
    15:00 +8°C° 0 mm 1 m/S 773 mmHg 71%
    16:00 +6°C° 0 mm 1 m/S 772 mmHg 80%
    17:00 +5°C° 0 mm 1 m/S 773 mmHg 81%
    18:00 +5°C° 0 mm 1 m/S 773 mmHg 82%
    19:00 +4°C° 0 mm 1 m/S 773 mmHg 83%
    20:00 +4°C° 0 mm 1 m/S 773 mmHg 82%
    21:00 +4°C° 0 mm 1 m/S 773 mmHg 80%
    22:00 +4°C° 0 mm 1 m/S 773 mmHg 78%
    23:00 +4°C° 0 mm 1 m/S 773 mmHg 75%

    10 Dezember, Samstag

    Zeit Temperatur Niederschläge Wind Luftdruck Luftfeuchtigkeit
    00:00 +4°C° 0 mm 1 m/S 773 mmHg 73%
    01:00 +4°C° 0 mm 1 m/S 772 mmHg 70%
    02:00 +4°C° 0 mm 1 m/S 772 mmHg 70%
    03:00 +4°C° 0 mm 1 m/S 771 mmHg 70%
    04:00 +4°C° 0 mm 1 m/S 771 mmHg 70%
    05:00 +4°C° 0 mm 1 m/S 771 mmHg 70%
    06:00 +4°C° 0 mm 1 m/S 771 mmHg 71%
    07:00 +4°C° 0 mm 1 m/S 771 mmHg 71%
    08:00 +6°C° 0 mm 1 m/S 771 mmHg 63%
    09:00 +9°C° 0 mm 1 m/S 771 mmHg 55%
    10:00 +11°C° 0 mm 1 m/S 771 mmHg 47%
    11:00 +12°C° 0 mm 1 m/S 771 mmHg 48%
    12:00 +13°C° 0 mm 1 m/S 770 mmHg 49%
    13:00 +13°C° 0 mm 1 m/S 770 mmHg 50%
    14:00 +11°C° 0 mm 1 m/S 769 mmHg 57%
    15:00 +9°C° 0 mm 1 m/S 769 mmHg 65%
    16:00 +7°C° 0 mm 1 m/S 769 mmHg 72%
    17:00 +5°C° 0 mm 0 m/S 769 mmHg 74%
    18:00 +4°C° 0 mm 0 m/S 769 mmHg 76%
    19:00 +4°C° 0 mm 0 m/S 769 mmHg 79%
    20:00 +4°C° 0 mm 0 m/S 769 mmHg 78%
    21:00 +3°C° 0 mm 0 m/S 769 mmHg 78%
    22:00 +3°C° 0 mm 0 m/S 769 mmHg 78%
    23:00 +3°C° 0 mm 0 m/S 768 mmHg 78%

    11 Dezember, Sonntag

    Zeit Temperatur Niederschläge Wind Luftdruck Luftfeuchtigkeit
    00:00 +4°C° 0 mm 1 m/S 768 mmHg 78%
    01:00 +4°C° 0 mm 1 m/S 768 mmHg 78%
    02:00 +4°C° 0 mm 1 m/S 767 mmHg 79%
    03:00 +4°C° 0 mm 1 m/S 767 mmHg 80%
    04:00 +4°C° 0 mm 1 m/S 766 mmHg 81%
    05:00 +4°C° 0 mm 1 m/S 766 mmHg 82%
    06:00 +4°C° 0 mm 1 m/S 766 mmHg 83%
    07:00 +4°C° 0 mm 1 m/S 766 mmHg 83%
    08:00 +6°C° 0 mm 1 m/S 766 mmHg 78%
    09:00 +8°C° 0 mm 1 m/S 766 mmHg 72%
    10:00 +10°C° 0 mm 1 m/S 766 mmHg 66%
    11:00 +10°C° 0 mm 1 m/S 765 mmHg 67%
    12:00 +11°C° 0 mm 1 m/S 764 mmHg 69%
    13:00 +12°C° 0 mm 1 m/S 764 mmHg 70%
    14:00 +10°C° 0 mm 1 m/S 764 mmHg 77%
    15:00 +9°C° 0 mm 1 m/S 763 mmHg 85%
    16:00 +7°C° 0 mm 1 m/S 763 mmHg 93%
    17:00 +7°C° 0 mm 1 m/S 763 mmHg 93%
    18:00 +7°C° 0 mm 1 m/S 763 mmHg 93%
    19:00 +7°C° 0 mm 1 m/S 762 mmHg 92%
    20:00 +7°C° 0 mm 1 m/S 762 mmHg 93%
    21:00 +7°C° 0 mm 1 m/S 762 mmHg 93%
    22:00 +6°C° 0 mm 1 m/S 762 mmHg 93%
    23:00 +6°C° 0 mm 1 m/S 761 mmHg 93%
    Mehr zeigen